Date String (YYYY-MM-DD hh:mm:ss) UTC,Instrument flags,Ambient pressure (hPa),Sample flow (lpm),Bypass flow (lpm),Sample temperature (°C),Ambient temperature (°C),ASC tube jacket temperature (°C),LED temperature (°C),Box temperature (°C),Sample RH (%),Span deviation,Mass concentration (μg/m³),Mass concentration (μg/m³),Mass concentration (μg/m³)
DateTimeUTC,F1_M11,P_M11,Q1_M11,Q2_M11,T1_M11,T2_M11,T3_M11,T4_M11,T5_M11,U1_M11,ZSPAN_M11,X0_M11,X2_M11,X1_M11
2023-04-29 06:00:00,,0833.8,5.00,0.00,24.8,23.5,00.0,33.1,26.4,14.4,0000.0,0008.40,0003.83,0002.16
2023-04-29 06:01:00,,0833.8,4.99,0.00,24.8,23.5,00.0,33.1,26.4,14.1,0000.0,0008.39,0003.83,0002.16
2023-04-29 06:02:00,,0833.8,5.01,0.00,24.8,23.5,00.0,33.1,26.4,14.1,0000.0,0008.60,0003.88,0002.15
2023-04-29 06:03:00,,0833.8,5.01,0.00,24.8,23.6,00.0,33.1,26.5,14.3,0000.0,0008.77,0003.91,0002.17
2023-04-29 06:04:00,,0833.8,5.00,0.00,24.8,23.6,00.0,33.1,26.5,14.2,0000.0,0008.89,0003.93,0002.19
2023-04-29 06:05:00,,0833.8,4.99,0.00,24.9,23.6,00.0,33.1,26.5,14.1,0000.0,0008.95,0003.96,0002.22
2023-04-29 06:06:00,,0833.8,5.00,0.00,24.9,23.7,00.0,33.1,26.5,14.0,0000.0,0008.90,0003.95,0002.23
2023-04-29 06:07:00,,0833.8,5.00,0.00,24.9,23.7,00.0,33.2,26.5,14.1,0000.0,0008.97,0003.98,0002.25
2023-04-29 06:08:00,,0833.8,5.00,0.00,24.9,23.7,00.0,33.2,26.6,14.0,0000.0,0008.99,0004.00,0002.29
2023-04-29 06:09:00,,0833.8,5.00,0.00,24.9,23.7,00.0,33.2,26.6,13.9,0000.0,0008.94,0003.99,0002.30
2023-04-29 06:10:00,,0833.8,4.98,0.00,25.0,23.7,00.0,33.2,26.6,13.8,0000.0,0008.94,0004.01,0002.31
2023-04-29 06:11:00,,0833.8,5.01,0.00,25.0,23.7,00.0,33.2,26.6,14.0,0000.0,0008.87,0003.98,0002.31
2023-04-29 06:12:00,,0833.8,5.00,0.00,25.0,23.7,00.0,33.2,26.6,13.9,0000.0,0009.01,0004.01,0002.31
2023-04-29 06:13:00,,0833.9,5.01,0.00,25.0,23.7,00.0,33.2,26.6,14.0,0000.0,0008.98,0004.00,0002.34
2023-04-29 06:14:00,,0833.9,5.01,0.00,25.0,23.7,00.0,33.3,26.7,14.4,0000.0,0008.93,0003.97,0002.36
2023-04-29 06:15:00,,0833.8,4.99,0.00,25.0,23.8,00.0,33.3,26.7,14.6,0000.0,0009.43,0003.98,0002.36
2023-04-29 06:16:00,,0833.9,4.99,0.00,25.0,23.8,00.0,33.3,26.6,14.5,0000.0,0009.49,0003.94,0002.36
2023-04-29 06:17:00,,0833.9,5.00,0.00,25.0,23.8,00.0,33.3,26.6,14.5,0000.0,0009.86,0003.99,0002.38
2023-04-29 06:18:00,,0833.9,5.00,0.00,25.0,23.8,00.0,33.3,26.6,14.3,0000.0,0009.94,0003.97,0002.39
2023-04-29 06:19:00,,0833.9,5.01,0.00,25.0,23.8,00.0,33.3,26.7,13.8,0000.0,0010.40,0003.96,0002.38
2023-04-29 06:20:00,,0833.9,5.01,0.00,25.0,23.7,00.0,33.3,26.7,14.3,0000.0,0010.39,0003.94,0002.38
2023-04-29 06:21:00,,0833.8,5.00,0.00,25.0,23.7,00.0,33.3,26.7,14.1,0000.0,0010.61,0003.90,0002.39
2023-04-29 06:22:00,,0833.8,5.00,0.00,25.0,23.7,00.0,33.3,26.7,13.5,0000.0,0010.89,0003.92,0002.40
2023-04-29 06:23:00,,0833.8,5.00,0.00,25.1,23.8,00.0,33.3,26.6,13.2,0000.0,0010.83,0003.92,0002.39
2023-04-29 06:24:00,,0833.8,4.99,0.00,25.1,23.8,00.0,33.3,26.6,13.3,0000.0,0010.50,0003.86,0002.37
2023-04-29 06:25:00,,0833.9,4.99,0.00,25.1,23.8,00.0,33.4,26.6,13.5,0000.0,0010.42,0003.85,0002.35
2023-04-29 06:26:00,,0833.9,5.01,0.00,25.1,23.8,00.0,33.4,26.7,13.4,0000.0,0010.06,0003.86,0002.33
2023-04-29 06:27:00,,0833.8,5.00,0.00,25.1,23.8,00.0,33.4,26.7,13.7,0000.0,0010.75,0003.90,0002.33
2023-04-29 06:28:00,,0833.8,5.00,0.00,25.1,23.7,00.0,33.4,26.6,13.9,0000.0,0011.18,0003.91,0002.32
2023-04-29 06:29:00,,0833.8,4.99,0.00,25.1,23.7,00.0,33.4,26.7,14.1,0000.0,0011.63,0003.99,0002.34
2023-04-29 06:30:00,,0833.8,5.00,0.00,25.0,23.6,00.0,33.4,26.7,14.1,0000.0,0011.15,0004.00,0002.36
2023-04-29 06:31:00,,0833.8,5.01,0.00,25.1,23.6,00.0,33.4,26.7,14.1,0000.0,0011.22,0003.99,0002.36
2023-04-29 06:32:00,,0833.8,5.01,0.00,25.1,23.6,00.0,33.4,26.7,14.3,0000.0,0011.38,0003.97,0002.35
2023-04-29 06:33:00,,0833.8,5.01,0.00,25.1,23.6,00.0,33.4,26.7,14.5,0000.0,0011.42,0003.94,0002.36
2023-04-29 06:34:00,,0833.8,4.98,0.00,25.1,23.6,00.0,33.4,26.7,14.4,0000.0,0011.69,0003.97,0002.39
2023-04-29 06:35:00,,0833.8,5.00,0.00,25.0,23.6,00.0,33.4,26.6,14.4,0000.0,0012.05,0004.03,0002.41
2023-04-29 06:36:00,,0833.8,5.00,0.00,25.0,23.5,00.0,33.4,26.6,14.4,0000.0,0012.52,0004.11,0002.43
2023-04-29 06:37:00,,0833.7,5.01,0.00,25.0,23.3,00.0,33.4,26.5,14.1,0000.0,0012.44,0004.13,0002.44
2023-04-29 06:38:00,,0833.8,5.00,0.00,24.9,23.2,00.0,33.4,26.4,14.1,0000.0,0011.60,0004.11,0002.44
2023-04-29 06:39:00,,0833.8,5.00,0.00,24.9,23.1,00.0,33.3,26.4,14.1,0000.0,0010.93,0004.07,0002.44
2023-04-29 06:40:00,,0833.8,4.99,0.00,24.8,23.0,00.0,33.3,26.3,13.9,0000.0,0010.78,0004.03,0002.43
2023-04-29 06:41:00,,0833.8,5.00,0.00,24.8,22.9,00.0,33.3,26.3,13.9,0000.0,0010.97,0004.03,0002.42
2023-04-29 06:42:00,,0833.8,5.00,0.00,24.7,22.8,00.0,33.3,26.2,13.9,0000.0,0011.01,0004.08,0002.42
2023-04-29 06:43:00,,0833.8,5.01,0.00,24.7,22.8,00.0,33.2,26.2,13.9,0000.0,0010.55,0004.10,0002.40
2023-04-29 06:44:00,,0833.8,5.00,0.00,24.7,22.7,00.0,33.2,26.1,13.9,0000.0,0010.38,0004.11,0002.37
2023-04-29 06:45:00,,0833.8,4.99,0.00,24.6,22.7,00.0,33.2,26.1,13.9,0000.0,0010.37,0004.08,0002.34
2023-04-29 06:46:00,,0833.8,5.00,0.00,24.6,22.6,00.0,33.2,26.1,13.8,0000.0,0010.19,0004.06,0002.31
2023-04-29 06:47:00,,0833.8,5.01,0.00,24.6,22.6,00.0,33.1,26.0,13.9,0000.0,0009.98,0004.04,0002.28
2023-04-29 06:48:00,,0833.8,5.01,0.00,24.5,22.6,00.0,33.1,26.0,13.8,0000.0,0009.86,0004.03,0002.28
2023-04-29 06:49:00,,0833.8,5.01,0.00,24.5,22.6,00.0,33.1,26.0,13.7,0000.0,0010.21,0004.01,0002.27
2023-04-29 06:50:00,,0833.8,5.01,0.00,24.5,22.7,00.0,33.1,26.0,13.6,0000.0,0010.27,0003.98,0002.27
2023-04-29 06:51:00,,0833.8,4.99,0.00,24.5,22.7,00.0,33.1,26.0,13.6,0000.0,0009.99,0003.95,0002.25
2023-04-29 06:52:00,,0833.8,5.00,0.00,24.5,22.8,00.0,33.0,26.1,13.6,0000.0,0009.94,0003.97,0002.24
2023-04-29 06:53:00,,0833.8,5.00,0.00,24.5,22.8,00.0,33.0,26.0,13.5,0000.0,0009.83,0003.94,0002.22
2023-04-29 06:54:00,,0833.8,5.00,0.00,24.5,22.9,00.0,33.0,26.0,13.5,0000.0,0009.87,0003.97,0002.20
2023-04-29 06:55:00,,0833.8,5.00,0.00,24.5,22.9,00.0,33.0,26.0,13.5,0000.0,0010.58,0004.04,0002.22
2023-04-29 06:56:00,,0833.8,5.01,0.00,24.5,22.8,00.0,33.0,26.0,13.7,0000.0,0010.99,0004.04,0002.21
2023-04-29 06:57:00,,0833.8,5.00,0.00,24.5,22.8,00.0,33.0,26.0,13.6,0000.0,0010.76,0003.99,0002.20
2023-04-29 06:58:00,,0833.8,4.99,0.00,24.4,22.8,00.0,32.9,25.9,13.5,0000.0,0010.51,0003.94,0002.21
2023-04-29 06:59:00,,0833.8,5.01,0.00,24.4,22.7,00.0,32.9,26.0,13.5,0000.0,0010.45,0003.96,0002.20
